IRIDIUM 159

Last updated on Tue Sep 22 2026 00:03:21 GMT+0000 (Coordinated Universal Time)

1 43578U 18061K 26264.55655676 .00000009 00000+0 -38898-5 0 9998 2 43578 86.4008 16.4038 0002109 95.7561 264.3875 14.34217393427197
UTC large
Height (km)
Speed (km/s)
/
Latitude / Longitude
Inclination (degrees)
Orbital Period (minutes)
Azimuth
Elevation
Range (km)
Doppler Factor

Next 0 passes for location: London (51.5072 / 0.1276)

No passes found over London.
IRIDIUM 159